| time (UTC) | temp C | wind direction | speed KPH | gust KPH | rain 1hr cm | rain 24hr cm | rain mn cm | humidity % | barometer mb |
| 20260901063048 | 20 | 153 | 0.0 | 4.8 | 0.00 | 0.00 | 0.00 | 93 | 1016.0 |
| 20260901061517 | 20 | 129 | 0.0 | 3.2 | 0.00 | 0.00 | 0.00 | 93 | 1016.4 |
| 20260901060014 | 20 | 85 | 0.0 | 1.6 | 0.00 | 0.00 | 0.00 | 93 | 1016.8 |
| 20260901054548 | 20 | 143 | 0.0 | 0.0 | 0.00 | 0.00 | 0.00 | 93 | 1016.9 |
| 20260901053017 | 20 | 143 | 1.6 | 3.2 | 0.00 | 0.00 | 0.00 | 93 | 1016.9 |
| 20260901051536 | 20 | 118 | 0.0 | 3.2 | 0.00 | 0.00 | 0.00 | 94 | 1017.2 |
| 20260901050107 | 20 | 48 | 0.0 | 3.2 | 0.00 | 0.00 | 0.00 | 94 | 1017.0 |
| 20260901044508 | 19 | 104 | 0.0 | 4.8 | 0.00 | 0.00 | 0.00 | 94 | 1017.2 |
| 20260901043038 | 19 | 3 | 0.0 | 3.2 | 0.00 | 0.00 | 0.00 | 94 | 1017.2 |
| 20260901041558 | 19 | 322 | 0.0 | 1.6 | 0.00 | 0.00 | 0.00 | 93 | 1017.4 |
| 20260901041502 | 19 | 322 | 0.0 | 1.6 | 0.00 | 0.00 | 0.00 | 94 | 1017.5 |
| 20260901040129 | 19 | 322 | 0.0 | 4.8 | 0.00 | 0.00 | 0.00 | 94 | 1017.2 |
| 20260901034522 | 19 | 327 | 0.0 | 0.0 | 0.00 | 0.00 | 0.00 | 93 | 1017.0 |
| 20260901033054 | 19 | 328 | 0.0 | 3.2 | 0.00 | 0.00 | 0.00 | 93 | 1017.2 |
| 20260901031521 | 19 | 328 | 0.0 | 1.6 | 0.00 | 0.00 | 0.00 | 93 | 1017.0 |
| 20260901030055 | 19 | 328 | 0.0 | 0.0 | 0.00 | 0.00 | 0.00 | 92 | 1017.5 |
| 20260901024605 | 19 | 328 | 0.0 | 0.0 | 0.00 | 0.00 | 0.00 | 92 | 1017.5 |
| 20260901024502 | 19 | 328 | 0.0 | 0.0 | 0.00 | 0.00 | 0.00 | 92 | 1017.6 |
| 20260901023026 | 19 | 328 | 0.0 | 0.0 | 0.00 | 0.00 | 0.00 | 92 | 1017.6 |
| 20260901021628 | 19 | 327 | 0.0 | 0.0 | 0.00 | 0.00 | 0.00 | 92 | 1017.7 |
| 20260901020121 | 19 | 328 | 0.0 | 0.0 | 0.00 | 0.00 | 0.00 | 92 | 1017.7 |
| 20260901014524 | 19 | 327 | 0.0 | 0.0 | 0.00 | 0.00 | 0.00 | 91 | 1017.7 |
| 20260901013104 | 19 | 327 | 0.0 | 0.0 | 0.00 | 0.00 | 0.00 | 91 | 1017.6 |
| 20260901011515 | 20 | 328 | 0.0 | 0.0 | 0.00 | 0.00 | 0.00 | 91 | 1017.6 |
| 20260901010046 | 20 | 327 | 0.0 | 0.0 | 0.00 | 0.00 | 0.00 | 90 | 1017.6 |
| 20260901004545 | 20 | 328 | 0.0 | 3.2 | 0.00 | 0.00 | 0.00 | 90 | 1017.6 |
| 20260901003010 | 20 | 327 | 0.0 | 1.6 | 0.00 | 0.00 | 0.00 | 89 | 1017.6 |
| 20260901001557 | 20 | 328 | 0.0 | 3.2 | 0.00 | 0.00 | 0.00 | 88 | 1017.7 |
| 20260901000116 | 20 | 328 | 0.0 | 0.0 | 0.00 | 0.00 | 0.00 | 89 | 1017.6 |
| 20260831234505 | 20 | 328 | 0.0 | 1.6 | 0.00 | 0.00 | 0.00 | 88 | 1017.7 |
| 20260831233041 | 20 | 328 | 0.0 | 3.2 | 0.00 | 0.00 | 0.00 | 88 | 1017.7 |
| 20260831231606 | 21 | 328 | 1.6 | 4.8 | 0.00 | 0.00 | 0.00 | 88 | 1017.7 |
| 20260831230120 | 21 | 328 | 0.0 | 3.2 | 0.00 | 0.00 | 0.00 | 89 | 1018.1 |
| 20260831224524 | 21 | 327 | 0.0 | 3.2 | 0.00 | 0.00 | 0.00 | 88 | 1018.1 |
| 20260831223056 | 21 | 257 | 0.0 | 1.6 | 0.00 | 0.00 | 0.00 | 88 | 1018.2 |
| 20260831221510 | 21 | 257 | 0.0 | 0.0 | 0.00 | 0.00 | 0.00 | 87 | 1018.3 |
| 20260831220117 | 21 | 258 | 0.0 | 3.2 | 0.00 | 0.00 | 0.00 | 87 | 1018.3 |
| 20260831214511 | 21 | 338 | 1.6 | 4.8 | 0.00 | 0.00 | 0.00 | 84 | 1018.2 |
| 20260831213033 | 22 | 251 | 1.6 | 3.2 | 0.00 | 0.00 | 0.00 | 84 | 1018.1 |
| 20260831211603 | 22 | 251 | 0.0 | 1.6 | 0.00 | 0.00 | 0.00 | 82 | 1018.1 |
| 20260831210116 | 22 | 252 | 1.6 | 3.2 | 0.00 | 0.00 | 0.00 | 81 | 1018.2 |
| 20260831204515 | 23 | 221 | 0.0 | 0.0 | 0.00 | 0.00 | 0.00 | 81 | 1018.0 |
| 20260831203036 | 23 | 221 | 3.2 | 9.7 | 0.00 | 0.00 | 0.00 | 79 | 1018.1 |
| 20260831201507 | 23 | 60 | 0.0 | 4.8 | 0.00 | 0.00 | 0.00 | 78 | 1018.2 |
| 20260831200125 | 23 | 92 | 1.6 | 6.4 | 0.00 | 0.00 | 0.00 | 78 | 1018.2 |
| 20260831194547 | 23 | 183 | 0.0 | 3.2 | 0.00 | 0.00 | 0.00 | 79 | 1018.4 |
| 20260831193054 | 23 | 203 | 1.6 | 4.8 | 0.00 | 0.00 | 0.00 | 79 | 1018.5 |
| 20260831191517 | 23 | 298 | 0.0 | 4.8 | 0.00 | 0.00 | 0.00 | 77 | 1018.6 |
| 20260831190045 | 23 | 146 | 1.6 | 4.8 | 0.00 | 0.00 | 0.00 | 80 | 1018.9 |
| 20260831184607 | 23 | 120 | 0.0 | 6.4 | 0.00 | 0.00 | 0.00 | 79 | 1019.2 |
| 20260831183012 | 23 | 80 | 1.6 | 9.7 | 0.00 | 0.00 | 0.00 | 77 | 1019.3 |
| 20260831181537 | 23 | 202 | 0.0 | 3.2 | 0.00 | 0.00 | 0.00 | 81 | 1019.3 |
| 20260831180107 | 23 | 308 | 0.0 | 3.2 | 0.00 | 0.00 | 0.00 | 79 | 1019.2 |
| 20260831174510 | 23 | 110 | 0.0 | 4.8 | 0.00 | 0.00 | 0.00 | 80 | 1019.4 |
| 20260831173050 | 23 | 205 | 0.0 | 6.4 | 0.00 | 0.00 | 0.00 | 82 | 1019.3 |
| 20260831171503 | 23 | 133 | 0.0 | 4.8 | 0.00 | 0.00 | 0.00 | 79 | 1019.5 |
| 20260831170002 | 23 | 184 | 0.0 | 6.4 | 0.00 | 0.00 | 0.00 | 80 | 1019.8 |
| 20260831164532 | 23 | 127 | 0.0 | 6.4 | 0.00 | 0.00 | 0.00 | 79 | 1020.4 |
| 20260831163056 | 23 | 152 | 0.0 | 6.4 | 0.00 | 0.00 | 0.00 | 80 | 1020.3 |
| 20260831161515 | 22 | 131 | 1.6 | 8.0 | 0.00 | 0.00 | 0.00 | 80 | 1020.4 |
| 20260831160109 | 22 | 167 | 0.0 | 3.2 | 0.00 | 0.00 | 0.00 | 81 | 1020.4 |
| 20260831154516 | 22 | 320 | 1.6 | 6.4 | 0.00 | 0.00 | 0.00 | 80 | 1020.5 |
| 20260831153031 | 22 | 142 | 1.6 | 6.4 | 0.00 | 0.00 | 0.00 | 82 | 1020.7 |
| 20260831151603 | 21 | 344 | 1.6 | 8.0 | 0.00 | 0.00 | 0.00 | 83 | 1020.8 |
| 20260831150115 | 21 | 15 | 1.6 | 6.4 | 0.00 | 0.00 | 0.00 | 84 | 1020.8 |
| 20260831144528 | 21 | 17 | 1.6 | 4.8 | 0.00 | 0.00 | 0.00 | 83 | 1020.6 |
| 20260831143051 | 21 | 295 | 0.0 | 4.8 | 0.00 | 0.00 | 0.00 | 84 | 1020.6 |
| 20260831141509 | 21 | 73 | 0.0 | 4.8 | 0.00 | 0.00 | 0.00 | 86 | 1020.6 |
| 20260831140036 | 20 | 354 | 0.0 | 4.8 | 0.00 | 0.00 | 0.00 | 87 | 1020.6 |
| 20260831134536 | 20 | 98 | 1.6 | 6.4 | 0.00 | 0.00 | 0.00 | 89 | 1020.7 |
| 20260831133002 | 19 | 62 | 0.0 | 4.8 | 0.00 | 0.00 | 0.00 | 92 | 1020.9 |
| 20260831131526 | 18 | 323 | 1.6 | 8.0 | 0.00 | 0.00 | 0.00 | 91 | 1020.7 |
| 20260831130051 | 18 | 118 | 0.0 | 4.8 | 0.00 | 0.00 | 0.00 | 94 | 1020.7 |
| 20260831124556 | 18 | 344 | 0.0 | 4.8 | 0.00 | 0.00 | 0.00 | 96 | 1020.9 |
| 20260831123021 | 17 | 127 | 1.6 | 8.0 | 0.00 | 0.00 | 0.00 | 98 | 1021.0 |
| 20260831121544 | 17 | 153 | 1.6 | 4.8 | 0.00 | 0.00 | 0.00 | 98 | 1020.9 |
| 20260831120108 | 17 | 129 | 1.6 | 6.4 | 0.00 | 0.00 | 0.00 | 98 | 1020.9 |
| 20260831114507 | 16 | 276 | 0.0 | 0.0 | 0.00 | 0.00 | 0.00 | 99 | 1020.6 |
| 20260831113031 | 16 | 276 | 0.0 | 0.0 | 0.00 | 0.00 | 0.00 | 98 | 1020.8 |
| 20260831111501 | 16 | 276 | 0.0 | 0.0 | 0.00 | 0.00 | 0.00 | 98 | 1020.5 |
| 20260831110158 | 15 | 276 | 0.0 | 0.0 | 0.00 | 0.00 | 0.00 | 97 | 1020.0 |
| 20260831104515 | 15 | 276 | 0.0 | 0.0 | 0.00 | 0.00 | 0.00 | 97 | 1019.9 |
| 20260831103043 | 15 | 276 | 0.0 | 0.0 | 0.00 | 0.00 | 0.00 | 97 | 1019.7 |
| 20260831101506 | 15 | 276 | 0.0 | 0.0 | 0.00 | 0.00 | 0.00 | 97 | 1019.8 |
| 20260831094550 | 15 | 276 | 0.0 | 0.0 | 0.00 | 0.00 | 0.00 | 96 | 1019.6 |
| 20260831093014 | 15 | 276 | 0.0 | 0.0 | 0.00 | 0.00 | 0.00 | 96 | 1019.6 |
| 20260831091549 | 15 | 277 | 0.0 | 0.0 | 0.00 | 0.00 | 0.00 | 96 | 1019.5 |
| 20260831090105 | 15 | 276 | 0.0 | 0.0 | 0.00 | 0.00 | 0.00 | 96 | 1019.5 |
| 20260831084525 | 15 | 276 | 0.0 | 0.0 | 0.00 | 0.00 | 0.00 | 96 | 1019.6 |
| 20260831083050 | 15 | 276 | 0.0 | 0.0 | 0.00 | 0.00 | 0.00 | 96 | 1019.6 |
| 20260831081521 | 15 | 276 | 0.0 | 0.0 | 0.00 | 0.00 | 0.00 | 96 | 1019.6 |
| 20260831080041 | 15 | 276 | 0.0 | 0.0 | 0.00 | 0.00 | 0.00 | 96 | 1019.2 |
| 20260831074539 | 16 | 276 | 0.0 | 0.0 | 0.00 | 0.00 | 0.00 | 95 | 1019.1 |
| 20260831073138 | 16 | 276 | 0.0 | 0.0 | 0.00 | 0.00 | 0.00 | 95 | 1019.2 |
| 20260831071517 | 16 | 276 | 0.0 | 0.0 | 0.00 | 0.00 | 0.00 | 95 | 1019.2 |
| 20260831070044 | 16 | 277 | 0.0 | 0.0 | 0.00 | 0.00 | 0.00 | 95 | 1019.2 |
| 20260831064557 | 16 | 276 | 0.0 | 0.0 | 0.00 | 0.00 | 0.00 | 94 | 1019.3 |